sat.trackr.live / text

‹ back to catalog

UNKNOWN

NORAD 81624

UNKNOWN UNKNOWN UNKNOWN

§ Identity

Operator
Country
Launch date
Launch site
Launch vehicle
Mass (kg)
RCS (m²)

External: N2YO · Heavens-Above

§ Orbital elements

Epoch: 2026-09-14T14:48:25.445088Z

Period
97.69 min
Inclination
66.9726°
Eccentricity
0.0060864
Mean motion
14.74125834 rev/d
Perigee alt
605.2 km
Apogee alt
690.7 km
Semi-major
7,026.1 km
B*
4.7254e-4
RAAN
122.4957°
Arg perigee
357.7804°
Mean anomaly
2.3038°
Rev number
68,033

§ Raw data

UNKNOWN1 81624U          26257.61696117  .00003102  00000+0  47254-3 0  99902 81624  66.9726 122.4957 0060864 357.7804   2.3038 14.74125834680332

JSON: /api/v1/satellites/81624 · /tle

For live sub-satellite position, see the globe view (requires WebGL).

§ Visibility from observer

Set your observer location to see the next 7 days of passes ≥ 10°. The values pass through the URL so the page stays shareable.

No JS? Fill the form by hand. The geolocation button needs JavaScript.